When you browse on this site, cookies collect data to enhance your experience and personalize the content and advertising you see.
Visit our Privacy Policy to learn more. By continuing to use the site, you agree to this use of cookies and data.
  • In Lithuania
  • List of Countries
  • For 7 days
  • Water Temperature
  • Weather Map
  • Weather Widgets
  • user-avatar
    Login

    Hourly Weather Arwayheer

    Today, 24 February, Monday

    Time Temperature Precipitation Wind Pressure Humidity
    00:00 -7°C° 0 mm 2 mps 603 mmHg 66%
    01:00 -7°C° 0 mm 2 mps 604 mmHg 71%
    02:00 -8°C° 0 mm 2 mps 604 mmHg 72%
    03:00 -8°C° 0 mm 2 mps 604 mmHg 73%
    04:00 -8°C° 0 mm 2 mps 604 mmHg 74%
    05:00 -8°C° 0 mm 2 mps 604 mmHg 76%
    06:00 -9°C° 0 mm 2 mps 604 mmHg 78%
    07:00 -9°C° 0 mm 2 mps 604 mmHg 79%
    08:00 -10°C° 0.1 mm 3 mps 604 mmHg 80%
    09:00 -11°C° 0.1 mm 4 mps 604 mmHg 81%
    10:00 -11°C° 0.1 mm 4 mps 605 mmHg 82%
    11:00 -11°C° 0.6 mm 4 mps 604 mmHg 84%
    12:00 -11°C° 0.6 mm 4 mps 604 mmHg 86%
    13:00 -11°C° 0.6 mm 4 mps 604 mmHg 88%
    14:00 -11°C° 0.3 mm 4 mps 604 mmHg 88%
    15:00 -11°C° 0.3 mm 4 mps 604 mmHg 88%
    16:00 -11°C° 0.3 mm 4 mps 604 mmHg 89%
    17:00 -11°C° 0.3 mm 4 mps 605 mmHg 90%
    18:00 -12°C° 0.3 mm 3 mps 605 mmHg 92%
    19:00 -12°C° 0.3 mm 3 mps 606 mmHg 94%
    20:00 -13°C° 0.2 mm 3 mps 606 mmHg 94%
    21:00 -13°C° 0.2 mm 3 mps 606 mmHg 94%
    22:00 -13°C° 0.2 mm 2 mps 606 mmHg 94%
    23:00 -14°C° 0.1 mm 2 mps 606 mmHg 95%

    Tomorrow, 25 February, Tuesday

    Time Temperature Precipitation Wind Pressure Humidity
    00:00 -14°C° 0.1 mm 2 mps 606 mmHg 95%
    01:00 -12°C° 0.1 mm 1 mps 606 mmHg 95%
    02:00 -12°C° 0.1 mm 1 mps 606 mmHg 95%
    03:00 -13°C° 0.1 mm 1 mps 606 mmHg 96%
    04:00 -13°C° 0.1 mm 1 mps 606 mmHg 96%
    05:00 -13°C° 0.1 mm 1 mps 606 mmHg 96%
    06:00 -14°C° 0.1 mm 1 mps 607 mmHg 96%
    07:00 -14°C° 0.1 mm 1 mps 607 mmHg 97%
    08:00 -13°C° 0 mm 1 mps 607 mmHg 93%
    09:00 -14°C° 0 mm 2 mps 608 mmHg 90%
    10:00 -14°C° 0 mm 2 mps 608 mmHg 87%
    11:00 -14°C° 0 mm 3 mps 608 mmHg 84%
    12:00 -13°C° 0 mm 3 mps 608 mmHg 80%
    13:00 -12°C° 0 mm 4 mps 608 mmHg 77%
    14:00 -11°C° 0 mm 4 mps 608 mmHg 78%
    15:00 -11°C° 0 mm 4 mps 608 mmHg 79%
    16:00 -11°C° 0 mm 4 mps 608 mmHg 80%
    17:00 -12°C° 0 mm 3 mps 608 mmHg 84%
    18:00 -13°C° 0 mm 2 mps 607 mmHg 88%
    19:00 -14°C° 0 mm 2 mps 607 mmHg 93%
    20:00 -15°C° 0 mm 2 mps 607 mmHg 94%
    21:00 -15°C° 0 mm 2 mps 607 mmHg 94%
    22:00 -15°C° 0 mm 2 mps 607 mmHg 95%
    23:00 -16°C° 0 mm 2 mps 607 mmHg 95%

    Day after tomorrow, 26 February, Wednesday

    Time Temperature Precipitation Wind Pressure Humidity
    00:00 -16°C° 0 mm 2 mps 607 mmHg 95%
    01:00 -16°C° 0 mm 2 mps 607 mmHg 94%
    02:00 -16°C° 0 mm 2 mps 606 mmHg 93%
    03:00 -16°C° 0 mm 2 mps 606 mmHg 93%
    04:00 -15°C° 0 mm 2 mps 606 mmHg 92%
    05:00 -15°C° 0 mm 2 mps 606 mmHg 91%
    06:00 -15°C° 0 mm 2 mps 606 mmHg 91%
    07:00 -15°C° 0 mm 2 mps 606 mmHg 91%
    08:00 -14°C° 0 mm 2 mps 606 mmHg 88%
    09:00 -12°C° 0 mm 2 mps 606 mmHg 84%
    10:00 -12°C° 0 mm 3 mps 607 mmHg 81%
    11:00 -9°C° 0 mm 3 mps 607 mmHg 75%
    12:00 -8°C° 0 mm 4 mps 608 mmHg 68%
    13:00 -5°C° 0 mm 4 mps 608 mmHg 62%
    14:00 -5°C° 0 mm 4 mps 608 mmHg 62%
    15:00 -5°C° 0 mm 4 mps 607 mmHg 62%
    16:00 -5°C° 0 mm 4 mps 607 mmHg 62%
    17:00 -7°C° 0 mm 3 mps 607 mmHg 66%
    18:00 -9°C° 0 mm 3 mps 606 mmHg 70%
    19:00 -10°C° 0 mm 2 mps 605 mmHg 74%
    20:00 -10°C° 0 mm 2 mps 605 mmHg 74%
    21:00 -12°C° 0 mm 2 mps 605 mmHg 75%
    22:00 -13°C° 0 mm 2 mps 605 mmHg 76%
    23:00 -13°C° 0 mm 2 mps 605 mmHg 76%

    27 February, Thursday

    Time Temperature Precipitation Wind Pressure Humidity
    00:00 -14°C° 0 mm 2 mps 605 mmHg 75%
    01:00 -14°C° 0 mm 2 mps 605 mmHg 75%
    02:00 -15°C° 0 mm 2 mps 605 mmHg 77%
    03:00 -15°C° 0 mm 2 mps 605 mmHg 80%
    04:00 -15°C° 0 mm 2 mps 604 mmHg 82%
    05:00 -15°C° 0 mm 2 mps 604 mmHg 83%
    06:00 -16°C° 0 mm 2 mps 604 mmHg 85%
    07:00 -16°C° 0 mm 2 mps 605 mmHg 86%
    08:00 -15°C° 0 mm 2 mps 605 mmHg 83%
    09:00 -13°C° 0 mm 2 mps 606 mmHg 79%
    10:00 -10°C° 0 mm 1 mps 606 mmHg 76%
    11:00 -10°C° 0 mm 2 mps 606 mmHg 76%
    12:00 -10°C° 0 mm 2 mps 606 mmHg 77%
    13:00 -10°C° 0 mm 3 mps 606 mmHg 78%
    14:00 -12°C° 0.2 mm 3 mps 605 mmHg 80%
    15:00 -12°C° 0.2 mm 3 mps 605 mmHg 81%
    16:00 -13°C° 0.2 mm 3 mps 605 mmHg 83%
    17:00 -13°C° 0.1 mm 2 mps 605 mmHg 86%
    18:00 -12°C° 0.1 mm 1 mps 605 mmHg 89%
    19:00 -13°C° 0.1 mm 1 mps 605 mmHg 91%
    20:00 -13°C° 0 mm 1 mps 605 mmHg 91%
    21:00 -14°C° 0 mm 1 mps 605 mmHg 92%
    22:00 -14°C° 0 mm 1 mps 604 mmHg 92%
    23:00 -15°C° 0 mm 1 mps 604 mmHg 92%

    28 February, Friday

    Time Temperature Precipitation Wind Pressure Humidity
    00:00 -15°C° 0 mm 1 mps 604 mmHg 93%
    01:00 -15°C° 0 mm 1 mps 603 mmHg 93%
    02:00 -16°C° 0 mm 1 mps 603 mmHg 93%
    03:00 -16°C° 0 mm 1 mps 603 mmHg 94%
    04:00 -16°C° 0 mm 1 mps 602 mmHg 94%
    05:00 -16°C° 0 mm 1 mps 602 mmHg 93%
    06:00 -17°C° 0 mm 2 mps 602 mmHg 92%
    07:00 -17°C° 0 mm 2 mps 602 mmHg 91%
    08:00 -17°C° 0 mm 3 mps 602 mmHg 88%
    09:00 -16°C° 0 mm 4 mps 603 mmHg 84%
    10:00 -15°C° 0 mm 5 mps 603 mmHg 81%
    11:00 -14°C° 0 mm 5 mps 603 mmHg 78%
    12:00 -12°C° 0 mm 5 mps 603 mmHg 76%
    13:00 -11°C° 0 mm 5 mps 603 mmHg 73%
    14:00 -9°C° 0 mm 4 mps 603 mmHg 73%
    15:00 -8°C° 0 mm 3 mps 602 mmHg 73%
    16:00 -7°C° 0 mm 3 mps 602 mmHg 72%
    17:00 -8°C° 0 mm 2 mps 602 mmHg 77%
    18:00 -9°C° 0 mm 2 mps 602 mmHg 81%
    19:00 -10°C° 0 mm 1 mps 601 mmHg 85%
    20:00 -12°C° 0.1 mm 2 mps 602 mmHg 87%
    21:00 -13°C° 0.1 mm 3 mps 602 mmHg 89%
    22:00 -13°C° 0.1 mm 3 mps 603 mmHg 91%
    23:00 -14°C° 0 mm 4 mps 603 mmHg 86%

    29 February, Saturday

    Time Temperature Precipitation Wind Pressure Humidity
    00:00 -15°C° 0 mm 6 mps 604 mmHg 81%
    01:00 -15°C° 0 mm 7 mps 604 mmHg 77%
    02:00 -15°C° 0 mm 6 mps 604 mmHg 78%
    03:00 -16°C° 0 mm 6 mps 605 mmHg 79%
    04:00 -16°C° 0 mm 6 mps 605 mmHg 80%
    05:00 -17°C° 0 mm 5 mps 605 mmHg 81%
    06:00 -17°C° 0 mm 5 mps 606 mmHg 82%
    07:00 -17°C° 0 mm 4 mps 606 mmHg 82%
    08:00 -15°C° 0 mm 5 mps 607 mmHg 76%
    09:00 -14°C° 0 mm 5 mps 608 mmHg 69%
    10:00 -13°C° 0 mm 5 mps 608 mmHg 63%
    11:00 -12°C° 0 mm 5 mps 608 mmHg 60%
    12:00 -11°C° 0 mm 5 mps 608 mmHg 57%
    13:00 -11°C° 0 mm 5 mps 609 mmHg 55%
    14:00 -11°C° 0 mm 5 mps 608 mmHg 58%
    15:00 -12°C° 0 mm 5 mps 608 mmHg 62%
    16:00 -12°C° 0 mm 5 mps 608 mmHg 66%
    17:00 -13°C° 0 mm 5 mps 608 mmHg 73%
    18:00 -15°C° 0 mm 4 mps 608 mmHg 80%
    19:00 -15°C° 0 mm 3 mps 608 mmHg 87%
    20:00 -15°C° 0 mm 3 mps 608 mmHg 87%
    21:00 -16°C° 0 mm 3 mps 609 mmHg 87%
    22:00 -16°C° 0 mm 3 mps 609 mmHg 87%
    23:00 -17°C° 0 mm 3 mps 609 mmHg 87%
    Show more